DELTA 1 DEB

Satellite information

Favourite Embed

Satellite Type and Status

DEBRISIN ORBIT

Key statistics

Satellite DELTA 1 DEB at a glance.

Uptime

17451

Days in orbit

Revolutions

≈ 14.4

Per day

Orbit

SSO

Sun Synchronous Orbit

Inclination

98.7

Latest

Satellite identification and parameters

Extended collection of information and parameters for DELTA 1 DEB.

Object identification

Identified? True

Debris? True

Object name: DELTA 1 DEB

International designator: 1978-026EZ

Object number (NORAD): 13562

Object ID (CCSDS): 13562

Country: UNITED STATES OF AMERICA (US)

Current information (Y/N): Y

RCS size: SMALL

Orbital parameters

Period: 100.284 minutes

Inclination: 98.719 deg

SMA: 7150.147 km

Apoapsis: 796.336 km

Periapsis: 747.688 km

RAAN: 13.1741 deg

Eccentricy: 0.00340184

Argument of periapsis: 275.1316 deg

Mean anomaly: 139.4605 deg

Mean motion: 14.35920175 rev/day

Mean motion (dot): 0.00002145 rev/day2

B* drag term: 0.00075002398 1/REarth

Two-line elements (TLE)

Creation date: Dec. 12, 2025, 10:14 a.m.

Reference frame: TEME

Reference center: EARTH

Epoch: Dec. 12, 2025, 1:40 a.m. UTC

TLE line 0: 0 DELTA 1 DEB

TLE line 1: 1 13562U 78026EZ 25346.06971206 .00002145 00000-0 75002-3 0 9990

TLE line 2: 2 13562 98.7190 13.1741 0034018 275.1316 139.4605 14.35920175327165

Live tracking on map

Real-time ground track for satellite DELTA 1 DEB.

In-orbit conjunctions

A list of the most updated potential collisions computed for object DELTA 1 DEB.

Target Orbit TCA Probability of collision Miss distance Type
ARIANE 40 R/B SSO 2025-09-12 19:51:58 0.0002277471 585.0 (m) ROCKET BODY
CZ-2D DEB SSO 2024-09-10 16:20:20 0.000140115 43.0 (m) DEBRIS

Associated space launch

Earth observation satellite

DELTA 1 DEB was lifted into orbit during the mission ‘Delta 2910 | Landsat 3’, on board a Delta 2910 space rocket.

The launch took place on March 5, 1978, 5:54 p.m. from Space Launch Complex 2W.

For more information about the launch, click the button.

Launch to space Delta 2910 | Landsat 3
Delta 2910 | Landsat 3

Agency: N/A

Status: Launch Successful

Launch date: March 5, 1978, 5:54 p.m. UTC

Rocket: Delta 2910

Launch pad: Space Launch Complex 2W

Location: Vandenberg SFB, CA, USA

...

Latest news about this satellite

There are no fresh news available about this satellite. Check back as we update our databases every day.


Newsletter sign-up

Weekly statistics, charts and insights to help you stay on top of the space industry.